When you browse on this site, cookies collect data to enhance your experience and personalize the content and advertising you see.
Visit our Privacy Policy to learn more. By continuing to use the site, you agree to this use of cookies and data.
  • Em Portugal
  • Lista de países
  • Para 7 dias
  • Temperatura da água
  • Mapas de satélite
  • Mapa do tempo
  • Widgets de tempo
  • user-avatar
    Iniciar Sessão

    Previsão horária em Zelenaya Run

    Hoje, 24 Abril, Quarta-feira

    Tempo Temperatura Precipitação Vento Pressão Humidade
    00:00 +11°C° 0 mm 1 m/s 758 mmHg 50%
    01:00 +11°C° 0 mm 1 m/s 759 mmHg 52%
    02:00 +11°C° 0 mm 1 m/s 759 mmHg 53%
    03:00 +10°C° 0 mm 1 m/s 759 mmHg 54%
    04:00 +10°C° 0 mm 1 m/s 759 mmHg 55%
    05:00 +10°C° 0 mm 1 m/s 759 mmHg 57%
    06:00 +12°C° 0 mm 1 m/s 759 mmHg 53%
    07:00 +14°C° 0 mm 1 m/s 759 mmHg 50%
    08:00 +16°C° 0 mm 2 m/s 759 mmHg 47%
    09:00 +17°C° 0 mm 2 m/s 759 mmHg 42%
    10:00 +19°C° 0 mm 2 m/s 759 mmHg 37%
    11:00 +20°C° 0 mm 3 m/s 759 mmHg 33%
    12:00 +21°C° 0 mm 3 m/s 759 mmHg 32%
    13:00 +21°C° 0 mm 3 m/s 758 mmHg 31%
    14:00 +22°C° 0 mm 3 m/s 758 mmHg 29%
    15:00 +22°C° 0 mm 3 m/s 758 mmHg 31%
    16:00 +21°C° 0 mm 3 m/s 757 mmHg 32%
    17:00 +21°C° 0 mm 3 m/s 757 mmHg 33%
    18:00 +19°C° 0 mm 2 m/s 757 mmHg 38%
    19:00 +17°C° 0 mm 2 m/s 757 mmHg 42%
    20:00 +15°C° 0 mm 2 m/s 757 mmHg 47%
    21:00 +14°C° 0 mm 2 m/s 757 mmHg 49%
    22:00 +14°C° 0 mm 2 m/s 757 mmHg 51%
    23:00 +13°C° 0 mm 2 m/s 757 mmHg 52%

    Amanhã, 25 Abril, Quinta-feira

    Tempo Temperatura Precipitação Vento Pressão Humidade
    00:00 +12°C° 0 mm 2 m/s 758 mmHg 54%
    01:00 +12°C° 0 mm 1 m/s 758 mmHg 55%
    02:00 +11°C° 0 mm 1 m/s 758 mmHg 57%
    03:00 +11°C° 0 mm 1 m/s 758 mmHg 58%
    04:00 +11°C° 0 mm 1 m/s 758 mmHg 59%
    05:00 +10°C° 0 mm 1 m/s 757 mmHg 60%
    06:00 +12°C° 0 mm 2 m/s 757 mmHg 56%
    07:00 +14°C° 0 mm 2 m/s 758 mmHg 53%
    08:00 +16°C° 0 mm 2 m/s 758 mmHg 49%
    09:00 +18°C° 0 mm 3 m/s 757 mmHg 44%
    10:00 +19°C° 0 mm 4 m/s 757 mmHg 39%
    11:00 +21°C° 0 mm 5 m/s 757 mmHg 34%
    12:00 +21°C° 0 mm 5 m/s 757 mmHg 33%
    13:00 +22°C° 0 mm 5 m/s 756 mmHg 32%
    14:00 +22°C° 0 mm 5 m/s 756 mmHg 31%
    15:00 +22°C° 0 mm 5 m/s 755 mmHg 33%
    16:00 +21°C° 0 mm 4 m/s 755 mmHg 34%
    17:00 +21°C° 0 mm 4 m/s 755 mmHg 36%
    18:00 +19°C° 0 mm 3 m/s 755 mmHg 40%
    19:00 +17°C° 0 mm 3 m/s 755 mmHg 45%
    20:00 +15°C° 0 mm 2 m/s 755 mmHg 50%
    21:00 +14°C° 0 mm 2 m/s 755 mmHg 52%
    22:00 +14°C° 0 mm 2 m/s 755 mmHg 55%
    23:00 +13°C° 0 mm 2 m/s 755 mmHg 57%

    Depois de amanhã, 26 Abril, Sexta-feira

    Tempo Temperatura Precipitação Vento Pressão Humidade
    00:00 +12°C° 0 mm 2 m/s 755 mmHg 59%
    01:00 +12°C° 0 mm 2 m/s 754 mmHg 60%
    02:00 +12°C° 0 mm 2 m/s 754 mmHg 62%
    03:00 +10°C° 0 mm 2 m/s 754 mmHg 64%
    04:00 +10°C° 0 mm 2 m/s 754 mmHg 66%
    05:00 +10°C° 0 mm 3 m/s 754 mmHg 68%
    06:00 +11°C° 0 mm 3 m/s 754 mmHg 63%
    07:00 +13°C° 0 mm 3 m/s 754 mmHg 59%
    08:00 +15°C° 0 mm 4 m/s 753 mmHg 55%
    09:00 +18°C° 0 mm 4 m/s 753 mmHg 49%
    10:00 +19°C° 0 mm 5 m/s 753 mmHg 43%
    11:00 +21°C° 0 mm 6 m/s 753 mmHg 37%
    12:00 +21°C° 0 mm 6 m/s 752 mmHg 36%
    13:00 +22°C° 0 mm 6 m/s 752 mmHg 34%
    14:00 +23°C° 0 mm 6 m/s 751 mmHg 33%
    15:00 +22°C° 0 mm 5 m/s 751 mmHg 34%
    16:00 +22°C° 0 mm 5 m/s 751 mmHg 36%
    17:00 +21°C° 0 mm 5 m/s 750 mmHg 37%
    18:00 +19°C° 0 mm 4 m/s 750 mmHg 41%
    19:00 +17°C° 0 mm 4 m/s 750 mmHg 45%
    20:00 +14°C° 0 mm 3 m/s 750 mmHg 49%
    21:00 +14°C° 0 mm 3 m/s 750 mmHg 50%
    22:00 +13°C° 0 mm 3 m/s 750 mmHg 52%
    23:00 +13°C° 0 mm 3 m/s 750 mmHg 54%

    27 Abril, Sábado

    Tempo Temperatura Precipitação Vento Pressão Humidade
    00:00 +12°C° 0 mm 3 m/s 749 mmHg 56%
    01:00 +12°C° 0 mm 3 m/s 749 mmHg 59%
    02:00 +12°C° 0 mm 3 m/s 749 mmHg 61%
    03:00 +12°C° 0 mm 3 m/s 748 mmHg 62%
    04:00 +12°C° 0 mm 3 m/s 748 mmHg 64%
    05:00 +12°C° 0 mm 3 m/s 748 mmHg 65%
    06:00 +13°C° 0 mm 4 m/s 747 mmHg 65%
    07:00 +14°C° 0 mm 4 m/s 747 mmHg 64%
    08:00 +15°C° 0 mm 4 m/s 747 mmHg 64%
    09:00 +17°C° 0 mm 4 m/s 747 mmHg 59%
    10:00 +19°C° 0 mm 5 m/s 747 mmHg 55%
    11:00 +21°C° 0 mm 5 m/s 747 mmHg 51%
    12:00 +22°C° 0 mm 5 m/s 746 mmHg 49%
    13:00 +23°C° 0 mm 5 m/s 746 mmHg 47%
    14:00 +25°C° 0 mm 5 m/s 745 mmHg 46%
    15:00 +23°C° 0.4 mm 4 m/s 745 mmHg 50%
    16:00 +24°C° 0.4 mm 3 m/s 745 mmHg 54%
    17:00 +23°C° 0.4 mm 2 m/s 744 mmHg 58%
    18:00 +21°C° 0.3 mm 2 m/s 744 mmHg 64%
    19:00 +19°C° 0.3 mm 2 m/s 744 mmHg 70%
    20:00 +19°C° 0.3 mm 1 m/s 744 mmHg 76%
    21:00 +18°C° 0 mm 1 m/s 744 mmHg 80%
    22:00 +18°C° 0 mm 1 m/s 744 mmHg 84%
    23:00 +16°C° 0 mm 1 m/s 744 mmHg 88%

    28 Abril, Domingo

    Tempo Temperatura Precipitação Vento Pressão Humidade
    00:00 +15°C° 0.4 mm 1 m/s 744 mmHg 89%
    01:00 +15°C° 0.4 mm 1 m/s 744 mmHg 91%
    02:00 +15°C° 0.4 mm 1 m/s 744 mmHg 93%
    03:00 +14°C° 0 mm 1 m/s 744 mmHg 93%
    04:00 +14°C° 0 mm 1 m/s 744 mmHg 94%
    05:00 +14°C° 0 mm 1 m/s 744 mmHg 94%
    06:00 +15°C° 0 mm 1 m/s 745 mmHg 89%
    07:00 +17°C° 0 mm 2 m/s 745 mmHg 83%
    08:00 +18°C° 0 mm 2 m/s 745 mmHg 78%
    09:00 +19°C° 0.3 mm 2 m/s 745 mmHg 73%
    10:00 +21°C° 0.3 mm 2 m/s 745 mmHg 67%
    11:00 +23°C° 0.3 mm 2 m/s 746 mmHg 62%
    12:00 +22°C° 1 mm 3 m/s 746 mmHg 61%
    13:00 +22°C° 1 mm 3 m/s 746 mmHg 61%
    14:00 +22°C° 1 mm 4 m/s 746 mmHg 60%
    15:00 +22°C° 0.3 mm 4 m/s 746 mmHg 61%
    16:00 +22°C° 0.3 mm 4 m/s 746 mmHg 62%
    17:00 +21°C° 0.3 mm 5 m/s 746 mmHg 64%
    18:00 +20°C° 0 mm 4 m/s 747 mmHg 69%
    19:00 +18°C° 0 mm 4 m/s 747 mmHg 74%
    20:00 +17°C° 0 mm 4 m/s 748 mmHg 78%
    21:00 +15°C° 0 mm 4 m/s 748 mmHg 81%
    22:00 +14°C° 0 mm 5 m/s 748 mmHg 84%
    23:00 +13°C° 0 mm 5 m/s 749 mmHg 86%

    29 Abril, Segunda-feira

    Tempo Temperatura Precipitação Vento Pressão Humidade
    00:00 +13°C° 0 mm 5 m/s 749 mmHg 86%
    01:00 +12°C° 0 mm 5 m/s 749 mmHg 87%
    02:00 +10°C° 0 mm 5 m/s 749 mmHg 87%
    03:00 +10°C° 0 mm 5 m/s 749 mmHg 85%
    04:00 +9°C° 0 mm 5 m/s 750 mmHg 84%
    05:00 +9°C° 0 mm 5 m/s 750 mmHg 82%
    06:00 +9°C° 0 mm 5 m/s 750 mmHg 77%
    07:00 +10°C° 0 mm 6 m/s 751 mmHg 73%
    08:00 +10°C° 0 mm 6 m/s 751 mmHg 68%
    09:00 +13°C° 0 mm 6 m/s 751 mmHg 64%
    10:00 +14°C° 0 mm 6 m/s 751 mmHg 60%
    11:00 +16°C° 0 mm 6 m/s 751 mmHg 57%
    12:00 +16°C° 0 mm 6 m/s 751 mmHg 56%
    13:00 +16°C° 0 mm 6 m/s 751 mmHg 55%
    14:00 +17°C° 0 mm 6 m/s 751 mmHg 54%
    15:00 +16°C° 0 mm 6 m/s 751 mmHg 55%
    16:00 +16°C° 0 mm 5 m/s 751 mmHg 56%
    17:00 +16°C° 0 mm 5 m/s 751 mmHg 57%
    18:00 +15°C° 0 mm 5 m/s 751 mmHg 58%
    19:00 +14°C° 0 mm 4 m/s 752 mmHg 59%
    20:00 +13°C° 0 mm 4 m/s 752 mmHg 61%
    21:00 +12°C° 0 mm 4 m/s 752 mmHg 61%
    22:00 +11°C° 0 mm 4 m/s 752 mmHg 62%
    23:00 +9°C° 0 mm 5 m/s 752 mmHg 62%
    Mostrar mais